Time,TemperatureF,DewpointF,PressureIn,WindDirection,WindDirectionDegrees,WindSpeedMPH,WindSpeedGustMPH,Humidity,HourlyPrecipIn,Conditions,Clouds,dailyrainin,SoftwareType,DateUTC
2013-06-11 00:00:00,59.0,30.7,29.47,WNW,292,0.0,2.0,34,0.00,,---,0.00,VWS V14.01,2013-06-11 06:00:00,
2013-06-11 00:10:00,58.7,31.1,29.45,WNW,292,0.0,0.0,35,0.00,,---,0.00,VWS V14.01,2013-06-11 06:10:00,
2013-06-11 00:20:00,57.8,31.0,29.47,WNW,292,0.0,0.0,36,0.00,,---,0.00,VWS V14.01,2013-06-11 06:20:00,
2013-06-11 00:30:00,55.5,30.3,29.48,WNW,292,0.0,0.0,38,0.00,,---,0.00,VWS V14.01,2013-06-11 06:30:00,
2013-06-11 00:40:00,55.1,29.3,29.48,WNW,292,0.0,0.0,37,0.00,,---,0.00,VWS V14.01,2013-06-11 06:40:00,
2013-06-11 00:50:00,54.0,29.0,29.50,WNW,292,0.0,0.0,38,0.00,,---,0.00,VWS V14.01,2013-06-11 06:50:00,
2013-06-11 01:00:00,54.3,29.2,29.50,WNW,292,0.0,0.0,38,0.00,,---,0.00,VWS V14.01,2013-06-11 07:00:00,
2013-06-11 01:10:00,53.5,29.8,29.50,WNW,292,0.0,2.0,40,0.00,,---,0.00,VWS V14.01,2013-06-11 07:10:00,
2013-06-11 01:20:00,55.5,29.7,29.48,WNW,292,0.0,1.0,37,0.00,,---,0.00,VWS V14.01,2013-06-11 07:20:00,
2013-06-11 01:30:00,55.0,29.2,29.48,WNW,292,0.0,1.0,37,0.00,,---,0.00,VWS V14.01,2013-06-11 07:30:00,
2013-06-11 01:40:00,55.3,29.5,29.47,WNW,292,4.0,10.0,37,0.00,,---,0.00,VWS V14.01,2013-06-11 07:40:00,
2013-06-11 01:50:00,55.0,29.9,29.48,NW,315,1.0,9.0,38,0.00,,---,0.00,VWS V14.01,2013-06-11 07:50:00,
2013-06-11 02:00:00,54.1,29.1,29.49,NW,315,0.0,0.0,38,0.00,,---,0.00,VWS V14.01,2013-06-11 08:00:00,
2013-06-11 02:10:00,53.9,29.5,29.48,NW,315,0.0,3.0,39,0.00,,---,0.00,VWS V14.01,2013-06-11 08:10:00,
2013-06-11 02:20:00,53.0,29.3,29.48,NW,315,1.0,3.0,40,0.00,,---,0.00,VWS V14.01,2013-06-11 08:20:00,
2013-06-11 02:30:00,52.8,29.2,29.48,NW,315,1.0,8.0,40,0.00,,---,0.00,VWS V14.01,2013-06-11 08:30:00,
2013-06-11 02:40:00,53.5,29.2,29.48,NW,315,2.0,7.0,39,0.00,,---,0.00,VWS V14.01,2013-06-11 08:40:00,
2013-06-11 02:50:00,52.9,28.6,29.48,NW,315,0.0,0.0,39,0.00,,---,0.00,VWS V14.01,2013-06-11 08:50:00,
2013-06-11 03:00:00,53.0,28.7,29.49,NW,315,0.0,4.0,39,0.00,,---,0.00,VWS V14.01,2013-06-11 09:00:00,
2013-06-11 03:10:00,52.2,28.6,29.53,NW,315,0.0,1.0,40,0.00,,---,0.00,VWS V14.01,2013-06-11 09:10:00,
2013-06-11 03:20:00,51.4,27.9,29.53,NW,315,0.0,4.0,40,0.00,,---,0.00,VWS V14.01,2013-06-11 09:20:00,
2013-06-11 03:30:00,51.6,28.1,29.53,NW,315,0.0,5.0,40,0.00,,---,0.00,VWS V14.01,2013-06-11 09:30:00,
2013-06-11 03:40:00,51.9,28.4,29.53,NW,315,1.0,7.0,40,0.00,,---,0.00,VWS V14.01,2013-06-11 09:40:00,
2013-06-11 03:50:00,50.6,28.4,29.53,NW,315,0.0,4.0,42,0.00,,---,0.00,VWS V14.01,2013-06-11 09:50:00,
2013-06-11 04:10:00,50.3,28.7,29.55,NW,309,0.0,7.0,43,0.00,,---,0.00,VWS V14.01,2013-06-11 10:10:00,
2013-06-11 04:11:00,50.3,28.7,29.55,NW,309,0.0,7.0,43,0.00,,---,0.00,VWS V14.01,2013-06-11 10:11:00,
2013-06-11 04:20:00,50.0,27.2,29.56,NW,309,0.0,0.0,41,0.00,,---,0.00,VWS V14.01,2013-06-11 10:20:00,
2013-06-11 04:22:00,50.0,27.2,29.56,NW,309,0.0,0.0,41,0.00,,---,0.00,VWS V14.01,2013-06-11 10:22:00,
2013-06-11 04:30:00,48.7,26.6,29.57,NW,309,0.0,0.0,42,0.00,,---,0.00,VWS V14.01,2013-06-11 10:30:00,
2013-06-11 04:31:00,48.7,26.6,29.57,NW,309,0.0,0.0,42,0.00,,---,0.00,VWS V14.01,2013-06-11 10:31:00,
2013-06-11 04:40:00,48.2,26.2,29.58,NW,309,0.0,0.0,42,0.00,,---,0.00,VWS V14.01,2013-06-11 10:40:00,
2013-06-11 04:42:00,48.2,26.2,29.58,NW,309,0.0,0.0,42,0.00,,---,0.00,VWS V14.01,2013-06-11 10:42:00,
2013-06-11 04:50:00,48.4,27.5,29.58,NW,309,0.0,1.0,44,0.00,,---,0.00,VWS V14.01,2013-06-11 10:50:00,
2013-06-11 04:51:00,48.4,27.5,29.58,NW,309,0.0,1.0,44,0.00,,---,0.00,VWS V14.01,2013-06-11 10:51:00,
2013-06-11 05:00:00,47.1,27.4,29.59,NW,309,0.0,0.0,46,0.00,,---,0.00,VWS V14.01,2013-06-11 11:00:00,
2013-06-11 05:01:00,47.1,27.4,29.59,NW,309,0.0,0.0,46,0.00,,---,0.00,VWS V14.01,2013-06-11 11:01:00,
2013-06-11 05:10:00,45.8,26.2,29.61,NW,309,0.0,5.0,46,0.00,,---,0.00,VWS V14.01,2013-06-11 11:10:00,
2013-06-11 05:12:00,45.8,26.2,29.61,NW,309,0.0,5.0,46,0.00,,---,0.00,VWS V14.01,2013-06-11 11:12:00,
2013-06-11 05:20:00,45.8,26.2,29.61,NW,309,0.0,0.0,46,0.00,,---,0.00,VWS V14.01,2013-06-11 11:20:00,
2013-06-11 05:21:00,45.8,26.2,29.61,NW,309,0.0,0.0,46,0.00,,---,0.00,VWS V14.01,2013-06-11 11:21:00,
2013-06-11 05:30:00,46.8,26.6,29.61,NW,309,0.0,0.0,45,0.00,,---,0.00,VWS V14.01,2013-06-11 11:30:00,
2013-06-11 05:32:00,46.8,26.6,29.61,NW,309,0.0,0.0,45,0.00,,---,0.00,VWS V14.01,2013-06-11 11:32:00,
2013-06-11 05:40:00,46.5,26.3,29.61,NW,320,0.0,0.0,45,0.00,,---,0.00,VWS V14.01,2013-06-11 11:40:00,
2013-06-11 05:41:00,46.5,26.3,29.61,NW,320,0.0,0.0,45,0.00,,---,0.00,VWS V14.01,2013-06-11 11:41:00,
2013-06-11 05:50:00,45.6,26.5,29.61,NW,320,0.0,2.0,47,0.00,,---,0.00,VWS V14.01,2013-06-11 11:50:00,
2013-06-11 05:51:00,45.6,26.5,29.61,NW,320,0.0,2.0,47,0.00,,---,0.00,VWS V14.01,2013-06-11 11:51:00,
2013-06-11 06:00:00,46.4,26.8,29.61,NW,320,0.0,0.0,46,0.00,,---,0.00,VWS V14.01,2013-06-11 12:00:00,
2013-06-11 06:01:00,46.4,26.8,29.61,NW,320,0.0,0.0,46,0.00,,---,0.00,VWS V14.01,2013-06-11 12:01:00,
2013-06-11 06:10:00,46.9,26.7,29.63,NW,319,3.0,4.0,45,0.00,,---,0.00,VWS V14.01,2013-06-11 12:10:00,
2013-06-11 06:11:00,46.9,26.7,29.63,NW,319,3.0,4.0,45,0.00,,---,0.00,VWS V14.01,2013-06-11 12:11:00,
2013-06-11 06:20:00,47.8,27.5,29.62,NW,319,4.0,5.0,45,0.00,,---,0.00,VWS V14.01,2013-06-11 12:20:00,
2013-06-11 06:22:00,47.8,27.5,29.62,NW,319,4.0,5.0,45,0.00,,---,0.00,VWS V14.01,2013-06-11 12:22:00,
2013-06-11 06:30:00,49.1,28.1,29.61,NW,319,4.0,9.0,44,0.00,,---,0.00,VWS V14.01,2013-06-11 12:30:00,
2013-06-11 06:31:00,49.1,28.1,29.61,NW,319,4.0,9.0,44,0.00,,---,0.00,VWS V14.01,2013-06-11 12:31:00,
2013-06-11 06:40:00,49.9,28.3,29.61,NW,319,0.0,6.0,43,0.00,,---,0.00,VWS V14.01,2013-06-11 12:40:00,
2013-06-11 06:41:00,49.9,28.3,29.61,NW,319,0.0,6.0,43,0.00,,---,0.00,VWS V14.01,2013-06-11 12:41:00,
2013-06-11 06:50:00,51.2,28.9,29.59,NW,321,2.0,10.0,42,0.00,,---,0.00,VWS V14.01,2013-06-11 12:50:00,
2013-06-11 06:52:00,51.2,28.9,29.59,NW,321,2.0,10.0,42,0.00,,---,0.00,VWS V14.01,2013-06-11 12:52:00,
2013-06-11 07:00:00,52.7,30.9,29.58,NNW,333,6.0,9.0,43,0.00,,---,0.00,VWS V14.01,2013-06-11 13:00:00,
2013-06-11 07:01:00,52.7,30.9,29.58,NNW,333,6.0,9.0,43,0.00,,---,0.00,VWS V14.01,2013-06-11 13:01:00,
2013-06-11 07:10:00,53.5,31.0,29.59,NNW,342,4.0,6.0,42,0.00,,---,0.00,VWS V14.01,2013-06-11 13:10:00,
2013-06-11 07:11:00,53.5,31.0,29.59,NNW,342,4.0,6.0,42,0.00,,---,0.00,VWS V14.01,2013-06-11 13:11:00,
2013-06-11 07:20:00,55.3,30.8,29.57,NNW,342,6.0,10.0,39,0.00,,---,0.00,VWS V14.01,2013-06-11 13:20:00,
2013-06-11 07:21:00,55.3,30.8,29.57,NNW,342,6.0,10.0,39,0.00,,---,0.00,VWS V14.01,2013-06-11 13:21:00,
2013-06-11 07:30:00,56.6,32.0,29.55,NNW,342,0.0,9.0,39,0.00,,---,0.00,VWS V14.01,2013-06-11 13:30:00,
2013-06-11 07:32:00,56.6,32.0,29.55,NNW,342,0.0,9.0,39,0.00,,---,0.00,VWS V14.01,2013-06-11 13:32:00,
2013-06-11 07:40:00,58.4,32.2,29.53,North,355,6.0,6.0,37,0.00,,---,0.00,VWS V14.01,2013-06-11 13:40:00,
2013-06-11 07:41:00,58.4,32.2,29.53,North,355,6.0,6.0,37,0.00,,---,0.00,VWS V14.01,2013-06-11 13:41:00,
2013-06-11 07:50:00,59.4,32.5,29.52,NNE,22,0.0,9.0,36,0.00,,---,0.00,VWS V14.01,2013-06-11 13:50:00,
2013-06-11 07:52:00,59.4,32.5,29.52,NNE,22,0.0,9.0,36,0.00,,---,0.00,VWS V14.01,2013-06-11 13:52:00,
2013-06-11 08:00:00,60.9,32.4,29.50,NW,321,0.0,3.0,34,0.00,,---,0.00,VWS V14.01,2013-06-11 14:00:00,
2013-06-11 08:01:00,60.9,32.4,29.50,NW,321,0.0,3.0,34,0.00,,---,0.00,VWS V14.01,2013-06-11 14:01:00,
2013-06-11 08:10:00,62.8,30.9,29.49,NNE,16,0.0,0.0,30,0.00,,---,0.00,VWS V14.01,2013-06-11 14:10:00,
2013-06-11 08:11:00,62.8,30.9,29.49,NNE,16,0.0,0.0,30,0.00,,---,0.00,VWS V14.01,2013-06-11 14:11:00,
2013-06-11 08:20:00,64.4,32.3,29.49,NNE,25,0.0,0.0,30,0.00,,---,0.00,VWS V14.01,2013-06-11 14:20:00,
2013-06-11 08:21:00,64.4,32.3,29.49,NNE,25,0.0,0.0,30,0.00,,---,0.00,VWS V14.01,2013-06-11 14:21:00,
2013-06-11 08:30:00,65.5,31.6,29.47,SE,132,4.0,7.0,28,0.00,,---,0.00,VWS V14.01,2013-06-11 14:30:00,
2013-06-11 08:31:00,65.5,31.6,29.47,SE,132,4.0,7.0,28,0.00,,---,0.00,VWS V14.01,2013-06-11 14:31:00,
2013-06-11 08:40:00,64.7,31.7,29.47,East,92,0.0,7.0,29,0.00,,---,0.00,VWS V14.01,2013-06-11 14:40:00,
2013-06-11 08:41:00,64.7,31.7,29.47,East,92,0.0,7.0,29,0.00,,---,0.00,VWS V14.01,2013-06-11 14:41:00,
2013-06-11 08:50:00,65.8,34.3,29.47,East,84,0.0,5.0,31,0.00,,---,0.00,VWS V14.01,2013-06-11 14:50:00,
2013-06-11 08:51:00,65.8,34.3,29.47,East,84,0.0,5.0,31,0.00,,---,0.00,VWS V14.01,2013-06-11 14:51:00,
2013-06-11 09:00:00,67.9,30.8,29.45,East,96,5.0,10.0,25,0.00,,---,0.00,VWS V14.01,2013-06-11 15:00:00,
2013-06-11 09:02:00,67.9,30.8,29.45,East,96,5.0,10.0,25,0.00,,---,0.00,VWS V14.01,2013-06-11 15:02:00,
2013-06-11 09:10:00,67.2,29.2,29.48,East,99,4.0,7.0,24,0.00,,---,0.00,VWS V14.01,2013-06-11 15:10:00,
2013-06-11 09:12:00,67.2,29.2,29.48,East,99,4.0,7.0,24,0.00,,---,0.00,VWS V14.01,2013-06-11 15:12:00,
2013-06-11 09:20:00,67.3,31.3,29.48,SE,133,2.0,11.0,26,0.00,,---,0.00,VWS V14.01,2013-06-11 15:20:00,
2013-06-11 09:22:00,67.3,31.3,29.48,SE,133,2.0,11.0,26,0.00,,---,0.00,VWS V14.01,2013-06-11 15:22:00,
2013-06-11 09:30:00,68.8,33.5,29.45,SE,143,5.0,7.0,27,0.00,,---,0.00,VWS V14.01,2013-06-11 15:30:00,
2013-06-11 09:32:00,68.8,33.5,29.45,SE,143,5.0,7.0,27,0.00,,---,0.00,VWS V14.01,2013-06-11 15:32:00,
2013-06-11 09:40:00,69.5,32.2,29.43,ESE,108,7.0,8.0,25,0.00,,---,0.00,VWS V14.01,2013-06-11 15:40:00,
2013-06-11 09:42:00,69.5,32.2,29.43,ESE,108,7.0,8.0,25,0.00,,---,0.00,VWS V14.01,2013-06-11 15:42:00,
2013-06-11 09:50:00,71.3,31.6,29.44,SE,130,4.0,9.0,23,0.00,,---,0.00,VWS V14.01,2013-06-11 15:50:00,
2013-06-11 09:51:00,71.3,31.6,29.44,SE,130,4.0,9.0,23,0.00,,---,0.00,VWS V14.01,2013-06-11 15:51:00,
2013-06-11 10:00:00,72.7,31.7,29.42,ESE,113,3.0,9.0,22,0.00,,---,0.00,VWS V14.01,2013-06-11 16:00:00,
2013-06-11 10:01:00,72.7,31.7,29.42,ESE,113,3.0,9.0,22,0.00,,---,0.00,VWS V14.01,2013-06-11 16:01:00,
2013-06-11 10:10:00,74.6,30.9,29.46,SE,145,1.0,10.0,20,0.00,,---,0.00,VWS V14.01,2013-06-11 16:10:00,
2013-06-11 10:11:00,74.6,30.9,29.46,SE,145,1.0,10.0,20,0.00,,---,0.00,VWS V14.01,2013-06-11 16:11:00,
2013-06-11 10:20:00,75.1,27.4,29.46,SSW,213,11.0,22.0,17,0.00,,---,0.00,VWS V14.01,2013-06-11 16:20:00,
2013-06-11 10:22:00,75.1,27.4,29.46,SSW,213,11.0,22.0,17,0.00,,---,0.00,VWS V14.01,2013-06-11 16:22:00,
2013-06-11 10:30:00,75.4,27.6,29.45,South,190,8.0,24.0,17,0.00,,---,0.00,VWS V14.01,2013-06-11 16:30:00,
2013-06-11 10:32:00,75.4,27.6,29.45,South,190,8.0,24.0,17,0.00,,---,0.00,VWS V14.01,2013-06-11 16:32:00,
2013-06-11 10:40:00,75.4,26.1,29.45,SSW,198,12.0,26.0,16,0.00,,---,0.00,VWS V14.01,2013-06-11 16:40:00,
2013-06-11 10:42:00,75.4,26.1,29.45,SSW,198,12.0,26.0,16,0.00,,---,0.00,VWS V14.01,2013-06-11 16:42:00,
2013-06-11 10:50:00,75.4,27.6,29.45,SSE,161,21.0,31.0,17,0.00,,---,0.00,VWS V14.01,2013-06-11 16:50:00,
2013-06-11 10:52:00,75.4,27.6,29.45,SSE,161,21.0,31.0,17,0.00,,---,0.00,VWS V14.01,2013-06-11 16:52:00,
2013-06-11 11:00:00,76.5,27.0,29.45,SSW,198,18.0,30.0,16,0.00,,---,0.00,VWS V14.01,2013-06-11 17:00:00,
2013-06-11 11:01:00,76.5,27.0,29.45,SSW,198,18.0,30.0,16,0.00,,---,0.00,VWS V14.01,2013-06-11 17:01:00,
2013-06-11 11:10:00,76.3,25.3,29.48,SW,217,27.0,28.0,15,0.00,,---,0.00,VWS V14.01,2013-06-11 17:10:00,
2013-06-11 11:11:00,76.3,25.3,29.48,SW,217,27.0,28.0,15,0.00,,---,0.00,VWS V14.01,2013-06-11 17:11:00,
2013-06-11 11:20:00,76.3,25.3,29.49,SSW,196,10.0,30.0,15,0.00,,---,0.00,VWS V14.01,2013-06-11 17:20:00,
2013-06-11 11:22:00,76.3,25.3,29.49,SSW,196,10.0,30.0,15,0.00,,---,0.00,VWS V14.01,2013-06-11 17:22:00,
2013-06-11 11:30:00,77.3,24.4,29.47,WSW,238,16.0,23.0,14,0.00,,---,0.00,VWS V14.01,2013-06-11 17:30:00,
2013-06-11 11:32:00,77.3,24.4,29.47,WSW,238,16.0,23.0,14,0.00,,---,0.00,VWS V14.01,2013-06-11 17:32:00,
2013-06-11 11:40:00,77.7,24.8,29.48,SSW,202,16.0,28.0,14,0.00,,---,0.00,VWS V14.01,2013-06-11 17:40:00,
2013-06-11 11:42:00,77.7,24.8,29.48,SSW,202,16.0,28.0,14,0.00,,---,0.00,VWS V14.01,2013-06-11 17:42:00,
2013-06-11 11:50:00,77.2,24.4,29.47,SSW,192,7.0,26.0,14,0.00,,---,0.00,VWS V14.01,2013-06-11 17:50:00,
2013-06-11 11:51:00,77.2,24.4,29.47,SSW,192,7.0,26.0,14,0.00,,---,0.00,VWS V14.01,2013-06-11 17:51:00,
2013-06-11 12:00:00,77.7,28.0,29.46,SSW,195,2.0,18.0,16,0.00,,---,0.00,VWS V14.01,2013-06-11 18:00:00,
2013-06-11 12:02:00,77.7,28.0,29.46,SSW,195,2.0,18.0,16,0.00,,---,0.00,VWS V14.01,2013-06-11 18:02:00,
2013-06-11 12:10:00,77.5,24.6,29.50,SSE,162,10.0,28.0,14,0.00,,---,0.00,VWS V14.01,2013-06-11 18:10:00,
2013-06-11 12:12:00,77.5,24.6,29.50,SSE,162,10.0,28.0,14,0.00,,---,0.00,VWS V14.01,2013-06-11 18:12:00,
2013-06-11 12:20:00,78.5,23.6,29.50,WSW,237,12.0,23.0,13,0.00,,---,0.00,VWS V14.01,2013-06-11 18:20:00,
2013-06-11 12:22:00,78.5,23.6,29.50,WSW,237,12.0,23.0,13,0.00,,---,0.00,VWS V14.01,2013-06-11 18:22:00,
2013-06-11 12:30:00,78.8,22.0,29.49,SSW,204,14.0,22.0,12,0.00,,---,0.00,VWS V14.01,2013-06-11 18:30:00,
2013-06-11 12:32:00,78.8,22.0,29.49,SSW,204,14.0,22.0,12,0.00,,---,0.00,VWS V14.01,2013-06-11 18:32:00,
2013-06-11 12:40:00,78.7,19.8,29.49,SSW,200,12.0,24.0,11,0.00,,---,0.00,VWS V14.01,2013-06-11 18:40:00,
2013-06-11 12:42:00,78.7,19.8,29.49,SSW,200,12.0,24.0,11,0.00,,---,0.00,VWS V14.01,2013-06-11 18:42:00,
2013-06-11 12:50:00,79.6,20.5,29.47,WSW,243,21.0,30.0,11,0.00,,---,0.00,VWS V14.01,2013-06-11 18:50:00,
2013-06-11 12:51:00,79.6,20.5,29.47,WSW,243,21.0,30.0,11,0.00,,---,0.00,VWS V14.01,2013-06-11 18:51:00,
2013-06-11 13:00:00,78.7,19.8,29.49,West,263,11.0,32.0,11,0.00,,---,0.00,VWS V14.01,2013-06-11 19:00:00,
2013-06-11 13:02:00,78.7,19.8,29.49,West,263,11.0,32.0,11,0.00,,---,0.00,VWS V14.01,2013-06-11 19:02:00,
2013-06-11 13:10:00,79.0,22.1,29.49,SSW,203,19.0,27.0,12,0.00,,---,0.00,VWS V14.01,2013-06-11 19:10:00,
2013-06-11 13:12:00,79.0,22.1,29.49,SSW,203,19.0,27.0,12,0.00,,---,0.00,VWS V14.01,2013-06-11 19:12:00,
2013-06-11 13:20:00,79.1,24.1,29.48,SSE,168,17.0,36.0,13,0.00,,---,0.00,VWS V14.01,2013-06-11 19:20:00,
2013-06-11 13:22:00,79.1,24.1,29.48,SSE,168,17.0,36.0,13,0.00,,---,0.00,VWS V14.01,2013-06-11 19:22:00,
2013-06-11 13:30:00,79.2,20.2,29.48,SSW,211,12.0,27.0,11,0.00,,---,0.00,VWS V14.01,2013-06-11 19:30:00,
2013-06-11 13:31:00,79.2,20.2,29.48,SSW,211,12.0,27.0,11,0.00,,---,0.00,VWS V14.01,2013-06-11 19:31:00,
2013-06-11 13:40:00,80.5,23.3,29.45,SSW,193,9.0,19.0,12,0.00,,---,0.00,VWS V14.01,2013-06-11 19:40:00,
2013-06-11 13:42:00,80.5,23.3,29.45,SSW,193,9.0,19.0,12,0.00,,---,0.00,VWS V14.01,2013-06-11 19:42:00,
2013-06-11 13:50:00,79.5,20.4,29.46,SSW,202,5.0,38.0,11,0.00,,---,0.00,VWS V14.01,2013-06-11 19:50:00,
2013-06-11 13:52:00,79.5,20.4,29.46,SSW,202,5.0,38.0,11,0.00,,---,0.00,VWS V14.01,2013-06-11 19:52:00,
2013-06-11 14:00:00,80.2,23.0,29.46,WSW,248,12.0,35.0,12,0.00,,---,0.00,VWS V14.01,2013-06-11 20:00:00,
2013-06-11 14:02:00,80.2,23.0,29.46,WSW,248,12.0,35.0,12,0.00,,---,0.00,VWS V14.01,2013-06-11 20:02:00,
2013-06-11 14:10:00,80.6,23.4,29.44,SW,215,19.0,28.0,12,0.00,,---,0.00,VWS V14.01,2013-06-11 20:10:00,
2013-06-11 14:11:00,80.6,23.4,29.44,SW,215,19.0,28.0,12,0.00,,---,0.00,VWS V14.01,2013-06-11 20:11:00,
2013-06-11 14:20:00,80.1,23.0,29.47,West,279,19.0,33.0,12,0.00,,---,0.00,VWS V14.01,2013-06-11 20:20:00,
2013-06-11 14:22:00,80.1,23.0,29.47,West,279,19.0,33.0,12,0.00,,---,0.00,VWS V14.01,2013-06-11 20:22:00,
2013-06-11 14:30:00,80.1,23.0,29.46,WSW,253,19.0,34.0,12,0.00,,---,0.00,VWS V14.01,2013-06-11 20:30:00,
2013-06-11 14:32:00,80.1,23.0,29.46,WSW,253,19.0,34.0,12,0.00,,---,0.00,VWS V14.01,2013-06-11 20:32:00,
2013-06-11 14:40:00,79.5,24.4,29.46,SW,222,12.0,27.0,13,0.00,,---,0.00,VWS V14.01,2013-06-11 20:40:00,
2013-06-11 14:42:00,79.5,24.4,29.46,SW,222,12.0,27.0,13,0.00,,---,0.00,VWS V14.01,2013-06-11 20:42:00,
2013-06-11 14:50:00,80.1,24.9,29.48,WSW,243,19.0,28.0,13,0.00,,---,0.00,VWS V14.01,2013-06-11 20:50:00,
2013-06-11 14:52:00,80.1,24.9,29.48,WSW,243,19.0,28.0,13,0.00,,---,0.00,VWS V14.01,2013-06-11 20:52:00,
2013-06-11 15:00:00,80.1,26.6,29.47,South,180,19.0,32.0,14,0.00,,---,0.00,VWS V14.01,2013-06-11 21:00:00,
2013-06-11 15:02:00,80.1,26.6,29.47,South,180,19.0,32.0,14,0.00,,---,0.00,VWS V14.01,2013-06-11 21:02:00,
2013-06-11 15:10:00,79.6,24.5,29.48,SW,227,13.0,22.0,13,0.00,,---,0.00,VWS V14.01,2013-06-11 21:10:00,
2013-06-11 15:12:00,79.6,24.5,29.48,SW,227,13.0,22.0,13,0.00,,---,0.00,VWS V14.01,2013-06-11 21:12:00,
2013-06-11 15:20:00,80.3,26.8,29.47,SW,230,13.0,26.0,14,0.00,,---,0.00,VWS V14.01,2013-06-11 21:20:00,
2013-06-11 15:30:00,79.2,22.3,29.49,NW,319,17.0,31.0,12,0.00,,---,0.00,VWS V14.01,2013-06-11 21:30:00,
2013-06-11 15:32:00,79.2,22.3,29.49,NW,319,17.0,31.0,12,0.00,,---,0.00,VWS V14.01,2013-06-11 21:32:00,
2013-06-11 15:40:00,79.8,24.6,29.48,West,275,14.0,27.0,13,0.00,,---,0.00,VWS V14.01,2013-06-11 21:40:00,
2013-06-11 15:42:00,79.8,24.6,29.48,West,275,14.0,27.0,13,0.00,,---,0.00,VWS V14.01,2013-06-11 21:42:00,
2013-06-11 15:50:00,80.2,25.0,29.48,WSW,244,16.0,27.0,13,0.00,,---,0.00,VWS V14.01,2013-06-11 21:50:00,
2013-06-11 15:52:00,80.2,25.0,29.48,WSW,244,16.0,27.0,13,0.00,,---,0.00,VWS V14.01,2013-06-11 21:52:00,
2013-06-11 16:00:00,79.8,26.4,29.48,SW,230,17.0,29.0,14,0.00,,---,0.00,VWS V14.01,2013-06-11 22:00:00,
2013-06-11 16:02:00,79.8,26.4,29.48,SW,230,17.0,29.0,14,0.00,,---,0.00,VWS V14.01,2013-06-11 22:02:00,
2013-06-11 16:10:00,80.0,24.8,29.51,West,275,22.0,29.0,13,0.00,,---,0.00,VWS V14.01,2013-06-11 22:10:00,
2013-06-11 16:12:00,80.0,24.8,29.51,West,275,22.0,29.0,13,0.00,,---,0.00,VWS V14.01,2013-06-11 22:12:00,
2013-06-11 16:20:00,79.6,24.5,29.51,West,281,12.0,27.0,13,0.00,,---,0.00,VWS V14.01,2013-06-11 22:20:00,
2013-06-11 16:22:00,79.6,24.5,29.51,West,281,12.0,27.0,13,0.00,,---,0.00,VWS V14.01,2013-06-11 22:22:00,
2013-06-11 16:30:00,79.9,26.5,29.52,West,266,12.0,24.0,14,0.00,,---,0.00,VWS V14.01,2013-06-11 22:30:00,
2013-06-11 16:32:00,79.9,26.5,29.52,West,266,12.0,24.0,14,0.00,,---,0.00,VWS V14.01,2013-06-11 22:32:00,
2013-06-11 16:40:00,79.4,24.3,29.52,WSW,254,14.0,27.0,13,0.00,,---,0.00,VWS V14.01,2013-06-11 22:40:00,
2013-06-11 16:42:00,79.4,24.3,29.52,WSW,254,14.0,27.0,13,0.00,,---,0.00,VWS V14.01,2013-06-11 22:42:00,
2013-06-11 16:50:00,79.3,24.2,29.52,West,267,15.0,30.0,13,0.00,,---,0.00,VWS V14.01,2013-06-11 22:50:00,
2013-06-11 16:52:00,79.3,24.2,29.52,West,267,15.0,30.0,13,0.00,,---,0.00,VWS V14.01,2013-06-11 22:52:00,
2013-06-11 17:00:00,79.3,24.2,29.52,SW,229,12.0,27.0,13,0.00,,---,0.00,VWS V14.01,2013-06-11 23:00:00,
2013-06-11 17:02:00,79.3,24.2,29.52,SW,229,12.0,27.0,13,0.00,,---,0.00,VWS V14.01,2013-06-11 23:02:00,
2013-06-11 17:10:00,78.7,23.8,29.53,West,275,14.0,28.0,13,0.00,,---,0.00,VWS V14.01,2013-06-11 23:10:00,
2013-06-11 17:12:00,78.7,23.8,29.53,West,275,14.0,28.0,13,0.00,,---,0.00,VWS V14.01,2013-06-11 23:12:00,
2013-06-11 17:20:00,78.7,23.8,29.53,West,275,20.0,33.0,13,0.00,,---,0.00,VWS V14.01,2013-06-11 23:20:00,
2013-06-11 17:22:00,78.7,23.8,29.53,West,275,20.0,33.0,13,0.00,,---,0.00,VWS V14.01,2013-06-11 23:22:00,
2013-06-11 17:30:00,78.1,23.3,29.54,WSW,244,13.0,32.0,13,0.00,,---,0.00,VWS V14.01,2013-06-11 23:30:00,
2013-06-11 17:32:00,78.1,23.3,29.54,WSW,244,13.0,32.0,13,0.00,,---,0.00,VWS V14.01,2013-06-11 23:32:00,
2013-06-11 17:40:00,78.0,25.0,29.54,West,275,17.0,25.0,14,0.00,,---,0.00,VWS V14.01,2013-06-11 23:40:00,
2013-06-11 17:42:00,78.0,25.0,29.54,West,275,17.0,25.0,14,0.00,,---,0.00,VWS V14.01,2013-06-11 23:42:00,
2013-06-11 17:50:00,77.8,23.1,29.53,WSW,242,22.0,29.0,13,0.00,,---,0.00,VWS V14.01,2013-06-11 23:50:00,
2013-06-11 17:52:00,77.8,23.1,29.53,WSW,242,22.0,29.0,13,0.00,,---,0.00,VWS V14.01,2013-06-11 23:52:00,
2013-06-11 18:00:00,77.5,22.8,29.53,West,260,21.0,28.0,13,0.00,,---,0.00,VWS V14.01,2013-06-12 00:00:00,
2013-06-11 18:02:00,77.5,22.8,29.53,West,260,21.0,28.0,13,0.00,,---,0.00,VWS V14.01,2013-06-12 00:02:00,
2013-06-11 18:10:00,77.0,22.4,29.49,WSW,250,22.0,29.0,13,0.00,,---,0.00,VWS V14.01,2013-06-12 00:10:00,
2013-06-11 18:12:00,77.0,22.4,29.49,WSW,250,22.0,29.0,13,0.00,,---,0.00,VWS V14.01,2013-06-12 00:12:00,
2013-06-11 18:20:00,76.6,23.9,29.49,SW,228,21.0,32.0,14,0.00,,---,0.00,VWS V14.01,2013-06-12 00:20:00,
2013-06-11 18:22:00,76.6,23.9,29.49,SW,228,21.0,32.0,14,0.00,,---,0.00,VWS V14.01,2013-06-12 00:22:00,
2013-06-11 18:30:00,76.1,23.5,29.51,SW,221,10.0,33.0,14,0.00,,---,0.00,VWS V14.01,2013-06-12 00:30:00,
2013-06-11 18:32:00,76.1,23.5,29.51,SW,221,10.0,33.0,14,0.00,,---,0.00,VWS V14.01,2013-06-12 00:32:00,
2013-06-11 18:40:00,76.1,25.1,29.51,WSW,238,14.0,34.0,15,0.00,,---,0.00,VWS V14.01,2013-06-12 00:40:00,
2013-06-11 18:42:00,76.1,25.1,29.51,WSW,238,14.0,34.0,15,0.00,,---,0.00,VWS V14.01,2013-06-12 00:42:00,
2013-06-11 18:50:00,75.7,24.8,29.52,WSW,242,10.0,32.0,15,0.00,,---,0.00,VWS V14.01,2013-06-12 00:50:00,
2013-06-11 18:52:00,75.7,24.8,29.52,WSW,242,10.0,32.0,15,0.00,,---,0.00,VWS V14.01,2013-06-12 00:52:00,
2013-06-11 19:00:00,75.4,26.1,29.52,West,262,16.0,24.0,16,0.00,,---,0.00,VWS V14.01,2013-06-12 01:00:00,
2013-06-11 19:02:00,75.4,26.1,29.52,West,262,16.0,24.0,16,0.00,,---,0.00,VWS V14.01,2013-06-12 01:02:00,
2013-06-11 19:10:00,74.9,25.7,29.47,WSW,257,2.0,20.0,16,0.00,,---,0.00,VWS V14.01,2013-06-12 01:10:00,
2013-06-11 19:12:00,74.9,25.7,29.47,WSW,257,2.0,20.0,16,0.00,,---,0.00,VWS V14.01,2013-06-12 01:12:00,
2013-06-11 19:20:00,74.8,25.6,29.47,West,263,5.0,14.0,16,0.00,,---,0.00,VWS V14.01,2013-06-12 01:20:00,
2013-06-11 19:22:00,74.8,25.6,29.47,West,263,5.0,14.0,16,0.00,,---,0.00,VWS V14.01,2013-06-12 01:22:00,
2013-06-11 19:30:00,74.1,25.1,29.50,West,279,15.0,16.0,16,0.00,,---,0.00,VWS V14.01,2013-06-12 01:30:00,
2013-06-11 19:32:00,74.1,25.1,29.50,West,279,15.0,16.0,16,0.00,,---,0.00,VWS V14.01,2013-06-12 01:32:00,
2013-06-11 19:40:00,72.8,24.0,29.51,West,274,6.0,22.0,16,0.00,,---,0.00,VWS V14.01,2013-06-12 01:40:00,
2013-06-11 19:42:00,72.8,24.0,29.51,West,274,6.0,22.0,16,0.00,,---,0.00,VWS V14.01,2013-06-12 01:42:00,
2013-06-11 19:50:00,71.9,23.3,29.52,West,259,2.0,16.0,16,0.00,,---,0.00,VWS V14.01,2013-06-12 01:50:00,
2013-06-11 19:52:00,71.9,23.3,29.52,West,259,2.0,16.0,16,0.00,,---,0.00,VWS V14.01,2013-06-12 01:52:00,
2013-06-11 20:00:00,71.1,24.1,29.52,WNW,290,0.0,11.0,17,0.00,,---,0.00,VWS V14.01,2013-06-12 02:00:00,
2013-06-11 20:02:00,71.1,24.1,29.52,WNW,290,0.0,11.0,17,0.00,,---,0.00,VWS V14.01,2013-06-12 02:02:00,
2013-06-11 20:10:00,70.4,23.5,29.48,West,264,1.0,12.0,17,0.00,,---,0.00,VWS V14.01,2013-06-12 02:10:00,
2013-06-11 20:12:00,70.4,23.5,29.48,West,264,1.0,12.0,17,0.00,,---,0.00,VWS V14.01,2013-06-12 02:12:00,
2013-06-11 20:20:00,70.4,23.5,29.48,West,277,0.0,13.0,17,0.00,,---,0.00,VWS V14.01,2013-06-12 02:20:00,
2013-06-11 20:22:00,70.4,23.5,29.48,West,277,0.0,13.0,17,0.00,,---,0.00,VWS V14.01,2013-06-12 02:22:00,
2013-06-11 20:30:00,70.0,24.6,29.49,West,279,0.0,10.0,18,0.00,,---,0.00,VWS V14.01,2013-06-12 02:30:00,
2013-06-11 20:32:00,70.0,24.6,29.49,West,279,0.0,10.0,18,0.00,,---,0.00,VWS V14.01,2013-06-12 02:32:00,
2013-06-11 20:40:00,70.1,24.7,29.49,West,279,0.0,11.0,18,0.00,,---,0.00,VWS V14.01,2013-06-12 02:40:00,
2013-06-11 20:42:00,70.1,24.7,29.49,West,279,0.0,11.0,18,0.00,,---,0.00,VWS V14.01,2013-06-12 02:42:00,
2013-06-11 20:50:00,69.9,24.5,29.49,West,279,0.0,9.0,18,0.00,,---,0.00,VWS V14.01,2013-06-12 02:50:00,
2013-06-11 20:52:00,69.9,24.5,29.49,West,279,0.0,9.0,18,0.00,,---,0.00,VWS V14.01,2013-06-12 02:52:00,
2013-06-11 21:00:00,69.4,24.1,29.50,WNW,290,9.0,9.0,18,0.00,,---,0.00,VWS V14.01,2013-06-12 03:00:00,
2013-06-11 21:02:00,69.4,24.1,29.50,WNW,290,9.0,9.0,18,0.00,,---,0.00,VWS V14.01,2013-06-12 03:02:00,
2013-06-11 21:10:00,69.2,23.9,29.48,NW,317,0.0,12.0,18,0.00,,---,0.00,VWS V14.01,2013-06-12 03:10:00,
2013-06-11 21:12:00,69.2,23.9,29.48,NW,317,0.0,12.0,18,0.00,,---,0.00,VWS V14.01,2013-06-12 03:12:00,
2013-06-11 21:20:00,68.8,24.9,29.48,NW,317,1.0,8.0,19,0.00,,---,0.00,VWS V14.01,2013-06-12 03:20:00,
2013-06-11 21:22:00,68.8,24.9,29.48,NW,317,1.0,8.0,19,0.00,,---,0.00,VWS V14.01,2013-06-12 03:22:00,
2013-06-11 21:30:00,69.1,23.9,29.48,NNW,346,0.0,12.0,18,0.00,,---,0.00,VWS V14.01,2013-06-12 03:30:00,
2013-06-11 21:32:00,69.1,23.9,29.48,NNW,346,0.0,12.0,18,0.00,,---,0.00,VWS V14.01,2013-06-12 03:32:00,
2013-06-11 21:40:00,68.0,24.2,29.51,NNW,346,0.0,0.0,19,0.00,,---,0.00,VWS V14.01,2013-06-12 03:40:00,
2013-06-11 21:42:00,68.0,24.2,29.51,NNW,346,0.0,0.0,19,0.00,,---,0.00,VWS V14.01,2013-06-12 03:42:00,
2013-06-11 21:50:00,67.8,24.1,29.51,NNW,346,0.0,0.0,19,0.00,,---,0.00,VWS V14.01,2013-06-12 03:50:00,
2013-06-11 21:52:00,67.8,24.1,29.51,NNW,346,0.0,0.0,19,0.00,,---,0.00,VWS V14.01,2013-06-12 03:52:00,
2013-06-11 22:00:00,67.2,23.6,29.53,NNW,346,0.0,0.0,19,0.00,,---,0.00,VWS V14.01,2013-06-12 04:00:00,
2013-06-11 22:02:00,67.2,23.6,29.53,NNW,346,0.0,0.0,19,0.00,,---,0.00,VWS V14.01,2013-06-12 04:02:00,
2013-06-11 22:10:00,66.1,23.9,29.51,NNW,346,0.0,1.0,20,0.00,,---,0.00,VWS V14.01,2013-06-12 04:10:00,
2013-06-11 22:12:00,66.1,23.9,29.51,NNW,346,0.0,1.0,20,0.00,,---,0.00,VWS V14.01,2013-06-12 04:12:00,
2013-06-11 22:20:00,67.7,24.0,29.50,NNW,327,9.0,13.0,19,0.00,,---,0.00,VWS V14.01,2013-06-12 04:20:00,
2013-06-11 22:22:00,67.7,24.0,29.50,NNW,327,9.0,13.0,19,0.00,,---,0.00,VWS V14.01,2013-06-12 04:22:00,
2013-06-11 22:30:00,67.1,23.5,29.51,NW,326,3.0,9.0,19,0.00,,---,0.00,VWS V14.01,2013-06-12 04:30:00,
2013-06-11 22:32:00,67.1,23.5,29.51,NW,326,3.0,9.0,19,0.00,,---,0.00,VWS V14.01,2013-06-12 04:32:00,
2013-06-11 22:40:00,64.6,23.8,29.52,NW,325,10.0,12.0,21,0.00,,---,0.00,VWS V14.01,2013-06-12 04:40:00,
2013-06-11 22:42:00,64.6,23.8,29.52,NW,325,10.0,12.0,21,0.00,,---,0.00,VWS V14.01,2013-06-12 04:42:00,
2013-06-11 22:50:00,65.0,24.1,29.52,NNW,334,9.0,15.0,21,0.00,,---,0.00,VWS V14.01,2013-06-12 04:50:00,
2013-06-11 22:52:00,65.0,24.1,29.52,NNW,334,9.0,15.0,21,0.00,,---,0.00,VWS V14.01,2013-06-12 04:52:00,
2013-06-11 23:00:00,64.5,24.8,29.52,NNW,336,11.0,16.0,22,0.00,,---,0.00,VWS V14.01,2013-06-12 05:00:00,
2013-06-11 23:02:00,64.5,24.8,29.52,NNW,336,11.0,16.0,22,0.00,,---,0.00,VWS V14.01,2013-06-12 05:02:00,
2013-06-11 23:10:00,64.8,25.1,29.52,North,355,13.0,25.0,22,0.00,,---,0.00,VWS V14.01,2013-06-12 05:10:00,
2013-06-11 23:12:00,64.8,25.1,29.52,North,355,13.0,25.0,22,0.00,,---,0.00,VWS V14.01,2013-06-12 05:12:00,
2013-06-11 23:20:00,64.4,25.8,29.53,North,360,12.0,19.0,23,0.00,,---,0.00,VWS V14.01,2013-06-12 05:20:00,
2013-06-11 23:22:00,64.4,25.8,29.53,North,360,12.0,19.0,23,0.00,,---,0.00,VWS V14.01,2013-06-12 05:22:00,
2013-06-11 23:30:00,63.1,24.7,29.54,North,350,13.0,16.0,23,0.00,,---,0.00,VWS V14.01,2013-06-12 05:30:00,
2013-06-11 23:32:00,63.1,24.7,29.54,North,350,13.0,16.0,23,0.00,,---,0.00,VWS V14.01,2013-06-12 05:32:00,
2013-06-11 23:40:00,63.3,24.9,29.55,North,355,15.0,17.0,23,0.00,,---,0.00,VWS V14.01,2013-06-12 05:40:00,
2013-06-11 23:42:00,63.3,24.9,29.55,North,355,15.0,17.0,23,0.00,,---,0.00,VWS V14.01,2013-06-12 05:42:00,
2013-06-11 23:50:00,63.3,24.9,29.53,North,350,11.0,15.0,23,0.00,,---,0.00,VWS V14.01,2013-06-12 05:50:00,
2013-06-11 23:52:00,63.3,24.9,29.53,North,350,11.0,15.0,23,0.00,,---,0.00,VWS V14.01,2013-06-12 05:52:00,